Time,TemperatureF,DewpointF,PressureIn,WindDirection,WindDirectionDegrees,WindSpeedMPH,WindSpeedGustMPH,Humidity,HourlyPrecipIn,Conditions,Clouds,dailyrainin,SoftwareType,DateUTC
2014-02-06 00:07:00,42.8,31.5,30.12,SSE,157,10.9,-999.0,64,-99.99,,,0.00,Acu-Link.com,2014-02-06 06:07:00,
2014-02-06 00:22:00,42.3,31.4,30.11,SSW,202,9.4,-999.0,65,-99.99,,,0.00,Acu-Link.com,2014-02-06 06:22:00,
2014-02-06 00:37:00,41.9,31.0,30.11,ESE,112,9.9,-999.0,65,-99.99,,,0.00,Acu-Link.com,2014-02-06 06:37:00,
2014-02-06 00:52:00,41.2,30.7,30.11,East,90,7.8,-999.0,66,-99.99,,,0.00,Acu-Link.com,2014-02-06 06:52:00,
2014-02-06 01:08:00,40.8,30.7,30.11,South,180,7.3,-999.0,67,-99.99,,,0.00,Acu-Link.com,2014-02-06 07:08:00,
2014-02-06 01:23:00,40.6,30.9,30.12,ESE,112,7.3,-999.0,68,-99.99,,,0.00,Acu-Link.com,2014-02-06 07:23:00,
2014-02-06 01:38:00,40.3,30.6,30.12,SW,225,11.4,-999.0,68,-99.99,,,0.00,Acu-Link.com,2014-02-06 07:38:00,
2014-02-06 01:53:00,39.9,30.2,30.12,SSE,157,4.7,-999.0,68,-99.99,,,0.00,Acu-Link.com,2014-02-06 07:53:00,
2014-02-06 02:09:00,39.6,29.9,30.11,South,180,9.4,-999.0,68,-99.99,,,0.00,Acu-Link.com,2014-02-06 08:09:00,
2014-02-06 02:24:00,39.2,29.5,30.11,SSW,202,7.3,-999.0,68,-99.99,,,0.00,Acu-Link.com,2014-02-06 08:24:00,
2014-02-06 02:39:00,39.2,29.5,30.11,South,180,6.3,-999.0,68,-99.99,,,0.00,Acu-Link.com,2014-02-06 08:39:00,
2014-02-06 02:54:00,39.0,29.7,30.11,SE,135,4.7,-999.0,69,-99.99,,,0.00,Acu-Link.com,2014-02-06 08:54:00,
2014-02-06 03:09:00,38.8,29.5,30.11,South,180,5.3,-999.0,69,-99.99,,,0.00,Acu-Link.com,2014-02-06 09:09:00,
2014-02-06 03:25:00,38.5,29.2,30.12,SSW,202,8.3,-999.0,69,-99.99,,,0.00,Acu-Link.com,2014-02-06 09:25:00,
2014-02-06 03:40:00,38.5,29.2,30.12,SSE,157,7.3,-999.0,69,-99.99,,,0.00,Acu-Link.com,2014-02-06 09:40:00,
2014-02-06 03:55:00,38.3,29.0,30.12,South,180,5.3,-999.0,69,-99.99,,,0.00,Acu-Link.com,2014-02-06 09:55:00,
2014-02-06 04:10:00,38.1,28.8,30.12,SSE,157,7.8,-999.0,69,-99.99,,,0.00,Acu-Link.com,2014-02-06 10:10:00,
2014-02-06 04:25:00,37.9,28.7,30.13,SE,135,5.8,-999.0,69,-99.99,,,0.00,Acu-Link.com,2014-02-06 10:25:00,
2014-02-06 04:41:00,37.9,28.7,30.13,South,180,6.3,-999.0,69,-99.99,,,0.00,Acu-Link.com,2014-02-06 10:41:00,
2014-02-06 04:56:00,37.8,28.6,30.13,SW,225,7.3,-999.0,69,-99.99,,,0.00,Acu-Link.com,2014-02-06 10:56:00,
2014-02-06 05:11:00,37.8,28.6,30.14,SSE,157,4.7,-999.0,69,-99.99,,,0.00,Acu-Link.com,2014-02-06 11:11:00,
2014-02-06 05:26:00,37.6,28.4,30.15,SE,135,5.8,-999.0,69,-99.99,,,0.00,Acu-Link.com,2014-02-06 11:26:00,
2014-02-06 05:41:00,37.4,28.2,30.15,SSE,157,5.3,-999.0,69,-99.99,,,0.00,Acu-Link.com,2014-02-06 11:41:00,
2014-02-06 05:57:00,36.9,27.7,30.15,South,180,5.3,-999.0,69,-99.99,,,0.00,Acu-Link.com,2014-02-06 11:57:00,
2014-02-06 06:12:00,36.3,27.1,30.16,ESE,112,6.8,-999.0,69,-99.99,,,0.00,Acu-Link.com,2014-02-06 12:12:00,
2014-02-06 06:27:00,36.3,27.1,30.16,SSE,157,8.3,-999.0,69,-99.99,,,0.00,Acu-Link.com,2014-02-06 12:27:00,
2014-02-06 06:42:00,36.3,27.1,30.18,SSE,157,8.3,-999.0,69,-99.99,,,0.00,Acu-Link.com,2014-02-06 12:42:00,
2014-02-06 06:58:00,36.0,26.8,30.18,NNE,22,15.0,-999.0,69,-99.99,,,0.00,Acu-Link.com,2014-02-06 12:58:00,
2014-02-06 07:13:00,35.8,26.6,30.18,ESE,112,11.9,-999.0,69,-99.99,,,0.00,Acu-Link.com,2014-02-06 13:13:00,
2014-02-06 07:28:00,35.6,26.5,30.19,South,180,6.8,-999.0,69,-99.99,,,0.00,Acu-Link.com,2014-02-06 13:28:00,
2014-02-06 07:43:00,35.6,26.5,30.20,SSE,157,7.3,-999.0,69,-99.99,,,0.00,Acu-Link.com,2014-02-06 13:43:00,
2014-02-06 07:58:00,35.4,26.3,30.19,NNE,22,7.3,-999.0,69,-99.99,,,0.00,Acu-Link.com,2014-02-06 13:58:00,
2014-02-06 08:14:00,35.2,26.1,30.19,South,180,14.0,-999.0,69,-99.99,,,0.00,Acu-Link.com,2014-02-06 14:14:00,
2014-02-06 08:29:00,35.2,26.1,30.19,ESE,112,8.3,-999.0,69,-99.99,,,0.00,Acu-Link.com,2014-02-06 14:29:00,
2014-02-06 08:44:00,35.4,26.3,30.20,South,180,6.3,-999.0,69,-99.99,,,0.00,Acu-Link.com,2014-02-06 14:44:00,
2014-02-06 08:59:00,35.6,26.5,30.21,NW,315,4.2,-999.0,69,-99.99,,,0.00,Acu-Link.com,2014-02-06 14:59:00,
2014-02-06 09:14:00,35.8,26.6,30.21,SW,225,9.4,-999.0,69,-99.99,,,0.00,Acu-Link.com,2014-02-06 15:14:00,
2014-02-06 09:30:00,35.6,26.5,30.22,SE,135,6.3,-999.0,69,-99.99,,,0.00,Acu-Link.com,2014-02-06 15:30:00,
2014-02-06 09:45:00,35.6,26.1,30.22,ENE,67,5.8,-999.0,68,-99.99,,,0.00,Acu-Link.com,2014-02-06 15:45:00,
2014-02-06 10:00:00,35.6,26.1,30.22,ESE,112,7.8,-999.0,68,-99.99,,,0.00,Acu-Link.com,2014-02-06 16:00:00,
2014-02-06 10:15:00,36.5,27.0,30.22,SE,135,7.8,-999.0,68,-99.99,,,0.00,Acu-Link.com,2014-02-06 16:15:00,
2014-02-06 10:31:00,36.5,26.6,30.23,West,270,9.9,-999.0,67,-99.99,,,0.00,Acu-Link.com,2014-02-06 16:31:00,
2014-02-06 10:46:00,36.5,26.6,30.23,SSE,157,6.3,-999.0,67,-99.99,,,0.00,Acu-Link.com,2014-02-06 16:46:00,
2014-02-06 11:01:00,36.3,26.4,30.23,ENE,67,5.8,-999.0,67,-99.99,,,0.00,Acu-Link.com,2014-02-06 17:01:00,
2014-02-06 11:16:00,36.3,26.0,30.23,ENE,67,4.2,-999.0,66,-99.99,,,0.00,Acu-Link.com,2014-02-06 17:16:00,
2014-02-06 11:31:00,37.2,26.5,30.23,NE,45,3.2,-999.0,65,-99.99,,,0.00,Acu-Link.com,2014-02-06 17:31:00,
2014-02-06 11:47:00,37.4,26.4,30.22,ESE,112,5.8,-999.0,64,-99.99,,,0.00,Acu-Link.com,2014-02-06 17:47:00,
2014-02-06 12:02:00,37.8,26.7,30.21,NE,45,5.8,-999.0,64,-99.99,,,0.00,Acu-Link.com,2014-02-06 18:02:00,
2014-02-06 12:17:00,37.8,26.7,30.21,SSE,157,4.7,-999.0,64,-99.99,,,0.00,Acu-Link.com,2014-02-06 18:17:00,
2014-02-06 12:32:00,37.8,26.4,30.20,East,90,4.7,-999.0,63,-99.99,,,0.00,Acu-Link.com,2014-02-06 18:32:00,
2014-02-06 12:47:00,38.3,26.8,30.19,SSW,202,5.3,-999.0,63,-99.99,,,0.00,Acu-Link.com,2014-02-06 18:47:00,
2014-02-06 13:03:00,38.3,26.4,30.18,South,180,5.3,-999.0,62,-99.99,,,0.00,Acu-Link.com,2014-02-06 19:03:00,
2014-02-06 13:18:00,38.5,26.6,30.17,South,180,7.8,-999.0,62,-99.99,,,0.00,Acu-Link.com,2014-02-06 19:18:00,
2014-02-06 13:33:00,38.7,26.8,30.17,SE,135,4.7,-999.0,62,-99.99,,,0.00,Acu-Link.com,2014-02-06 19:33:00,
2014-02-06 13:48:00,38.7,26.8,30.16,East,90,6.3,-999.0,62,-99.99,,,0.00,Acu-Link.com,2014-02-06 19:48:00,
2014-02-06 14:04:00,38.5,26.6,30.16,South,180,4.2,-999.0,62,-99.99,,,0.00,Acu-Link.com,2014-02-06 20:04:00,
2014-02-06 14:19:00,38.8,26.5,30.15,ESE,112,4.2,-999.0,61,-99.99,,,0.00,Acu-Link.com,2014-02-06 20:19:00,
2014-02-06 14:34:00,39.2,26.5,30.15,East,90,4.7,-999.0,60,-99.99,,,0.00,Acu-Link.com,2014-02-06 20:34:00,
2014-02-06 14:49:00,39.4,26.7,30.15,SW,225,3.7,-999.0,60,-99.99,,,0.00,Acu-Link.com,2014-02-06 20:49:00,
2014-02-06 15:04:00,39.4,26.7,30.13,ESE,112,4.7,-999.0,60,-99.99,,,0.00,Acu-Link.com,2014-02-06 21:04:00,
2014-02-06 15:20:00,39.4,26.3,30.14,NE,45,2.7,-999.0,59,-99.99,,,0.00,Acu-Link.com,2014-02-06 21:20:00,
2014-02-06 15:35:00,39.7,26.6,30.13,SSE,157,6.8,-999.0,59,-99.99,,,0.00,Acu-Link.com,2014-02-06 21:35:00,
2014-02-06 15:50:00,39.6,26.5,30.13,SSE,157,5.3,-999.0,59,-99.99,,,0.00,Acu-Link.com,2014-02-06 21:50:00,
2014-02-06 16:05:00,39.7,27.0,30.13,ENE,67,4.2,-999.0,60,-99.99,,,0.00,Acu-Link.com,2014-02-06 22:05:00,
2014-02-06 16:20:00,39.9,26.8,30.13,ENE,67,3.2,-999.0,59,-99.99,,,0.00,Acu-Link.com,2014-02-06 22:20:00,
2014-02-06 16:36:00,39.9,26.8,30.14,SE,135,3.7,-999.0,59,-99.99,,,0.00,Acu-Link.com,2014-02-06 22:36:00,
2014-02-06 16:51:00,40.1,26.9,30.13,East,90,3.7,-999.0,59,-99.99,,,0.00,Acu-Link.com,2014-02-06 22:51:00,
2014-02-06 17:06:00,40.3,26.7,30.13,East,90,5.3,-999.0,58,-99.99,,,0.00,Acu-Link.com,2014-02-06 23:06:00,
2014-02-06 17:21:00,40.3,26.7,30.13,ESE,112,3.2,-999.0,58,-99.99,,,0.00,Acu-Link.com,2014-02-06 23:21:00,
2014-02-06 17:36:00,40.1,26.5,30.13,SSE,157,3.7,-999.0,58,-99.99,,,0.00,Acu-Link.com,2014-02-06 23:36:00,
2014-02-06 17:52:00,39.9,26.3,30.14,South,180,5.3,-999.0,58,-99.99,,,0.00,Acu-Link.com,2014-02-06 23:52:00,
2014-02-06 18:07:00,39.6,26.5,30.14,South,180,5.8,-999.0,59,-99.99,,,0.00,Acu-Link.com,2014-02-07 00:07:00,
2014-02-06 18:22:00,39.4,25.9,30.13,ENE,67,2.7,-999.0,58,-99.99,,,0.00,Acu-Link.com,2014-02-07 00:22:00,
2014-02-06 18:37:00,39.2,26.1,30.13,SSE,157,2.7,-999.0,59,-99.99,,,0.00,Acu-Link.com,2014-02-07 00:37:00,
2014-02-06 18:53:00,39.0,25.9,30.13,SW,225,4.2,-999.0,59,-99.99,,,0.00,Acu-Link.com,2014-02-07 00:53:00,
2014-02-06 19:08:00,39.0,25.9,30.14,ESE,112,3.7,-999.0,59,-99.99,,,0.00,Acu-Link.com,2014-02-07 01:08:00,
2014-02-06 19:23:00,38.5,25.8,30.14,ENE,67,4.7,-999.0,60,-99.99,,,0.00,Acu-Link.com,2014-02-07 01:23:00,
2014-02-06 19:38:00,38.5,25.8,30.14,SSW,202,6.8,-999.0,60,-99.99,,,0.00,Acu-Link.com,2014-02-07 01:38:00,
2014-02-06 19:54:00,38.1,25.5,30.14,SSW,202,4.2,-999.0,60,-99.99,,,0.00,Acu-Link.com,2014-02-07 01:54:00,
2014-02-06 20:09:00,37.9,25.7,30.15,ESE,112,4.2,-999.0,61,-99.99,,,0.00,Acu-Link.com,2014-02-07 02:09:00,
2014-02-06 20:24:00,37.9,25.7,30.15,SE,135,3.2,-999.0,61,-99.99,,,0.00,Acu-Link.com,2014-02-07 02:24:00,
2014-02-06 20:39:00,37.9,25.7,30.15,South,180,4.7,-999.0,61,-99.99,,,0.00,Acu-Link.com,2014-02-07 02:39:00,
2014-02-06 20:54:00,37.9,26.1,30.15,East,90,3.7,-999.0,62,-99.99,,,0.00,Acu-Link.com,2014-02-07 02:54:00,
2014-02-06 21:10:00,37.8,26.0,30.16,SSE,157,5.8,-999.0,62,-99.99,,,0.00,Acu-Link.com,2014-02-07 03:10:00,
2014-02-06 21:25:00,37.8,26.0,30.16,South,180,3.2,-999.0,62,-99.99,,,0.00,Acu-Link.com,2014-02-07 03:25:00,
2014-02-06 21:40:00,37.8,26.4,30.15,SW,225,3.2,-999.0,63,-99.99,,,0.00,Acu-Link.com,2014-02-07 03:40:00,
2014-02-06 21:55:00,37.8,26.4,30.15,ENE,67,2.2,-999.0,63,-99.99,,,0.00,Acu-Link.com,2014-02-07 03:55:00,
2014-02-06 22:11:00,37.8,26.4,30.15,SE,135,2.7,-999.0,63,-99.99,,,0.00,Acu-Link.com,2014-02-07 04:11:00,
2014-02-06 22:26:00,37.6,26.2,30.15,SE,135,3.7,-999.0,63,-99.99,,,0.00,Acu-Link.com,2014-02-07 04:26:00,
2014-02-06 22:41:00,37.6,26.5,30.15,East,90,3.7,-999.0,64,-99.99,,,0.00,Acu-Link.com,2014-02-07 04:41:00,
2014-02-06 22:56:00,37.4,26.0,30.15,SE,135,4.7,-999.0,63,-99.99,,,0.00,Acu-Link.com,2014-02-07 04:56:00,
2014-02-06 23:12:00,37.2,25.8,30.15,East,90,3.7,-999.0,63,-99.99,,,0.00,Acu-Link.com,2014-02-07 05:12:00,
2014-02-06 23:27:00,37.2,25.8,30.15,ESE,112,3.2,-999.0,63,-99.99,,,0.00,Acu-Link.com,2014-02-07 05:27:00,
2014-02-06 23:42:00,37.0,25.6,30.14,East,90,2.7,-999.0,63,-99.99,,,0.00,Acu-Link.com,2014-02-07 05:42:00,
2014-02-06 23:57:00,37.0,25.6,30.13,SE,135,3.7,-999.0,63,-99.99,,,0.00,Acu-Link.com,2014-02-07 05:57:00,